Location: Unspecified
(42.9300°N, 71.1866°W)
Time: 15:05:23
(UTC-04:00)

Genesis I - Visible Passes

Search period start: 25 September 2016 00:00
Search period end: 05 October 2016 00:00
Orbit: 502 x 532 km, 64.5° (Epoch: 25 September)

Date Brightness Start Highest point End Pass type
(mag) Time Alt. Az. Time Alt. Az. Time Alt. Az.
25 Sep 6.2 05:35:07 10° SSE 05:37:33 16° ESE 05:40:00 10° ENE visible
26 Sep 6.1 05:19:42 10° SSE 05:22:13 16° ESE 05:24:45 10° ENE visible
27 Sep 6.1 05:04:16 10° SSE 05:06:53 17° ESE 05:09:29 10° ENE visible
28 Sep 5.9 04:48:51 10° SSE 04:51:32 17° ESE 04:54:13 10° ENE visible
29 Sep 5.8 04:33:26 10° SSE 04:36:11 18° ESE 04:38:57 10° ENE visible
29 Sep 3.7 06:09:45 10° SW 06:13:35 44° NW 06:17:26 10° NNE visible
30 Sep 5.6 04:19:15 15° SE 04:20:51 19° ESE 04:23:40 10° ENE visible
30 Sep 3.7 05:54:27 10° WSW 05:58:15 42° NW 06:02:05 10° NNE visible
01 Oct 5.5 04:05:12 19° ESE 04:05:29 19° ESE 04:08:22 10° ENE visible
01 Oct 3.8 05:40:16 18° WSW 05:42:55 41° NW 05:46:44 10° NNE visible
02 Oct 5.8 03:51:01 19° E 03:51:01 19° E 03:53:05 10° ENE visible
02 Oct 3.8 05:26:04 28° W 05:27:35 40° NW 05:31:23 10° NNE visible
03 Oct 6.2 03:36:42 15° ENE 03:36:42 15° ENE 03:37:47 10° ENE visible
03 Oct 3.8 05:11:45 37° WNW 05:12:15 39° NW 05:16:01 10° NNE visible
04 Oct 6.6 03:22:17 11° ENE 03:22:17 11° ENE 03:22:29 10° ENE visible
04 Oct 4.0 04:57:19 36° NW 04:57:19 36° NW 05:00:40 10° NNE visible
